Location: Bluff Heights
(33.7692°N, 118.1592°W)
Time: 09:37:30
(UTC+00:00)

Cosmos 1992 Rocket - Pass Details

Date: 29 October 2020
Orbit: 759 x 765 km, 74.0° (Epoch: 26 November)

Event Time Altitude Azimuth Distance (km) Brightness Sun altitude
Exits shadow 12:59:09 - 336° (NNW) 3,030 6.8 -15.2°
Reaches altitude 10° 13:01:05 10° 332° (NNW) 2,296 6.1 -14.8°
Maximum altitude 13:06:06 50° 258° (WSW) 959 4.1 -13.8°
Drops below altitude 10° 13:11:06 10° 183° (S) 2,287 6.5 -12.7°
Sets 13:13:31 0° 178° (S) 3,210 7.4 -12.2°
